Location: Newark
(52.5694°N, 1.3190°W)
Time: 15:16:09
(UTC+00:00)

N. Korean satellite - Pass Details

Date: 02 February 2020
Orbit: 456 x 506 km, 97.2° (Epoch: 17 February)

Event Time Altitude Azimuth Distance (km) Brightness Sun altitude
Rises 17:38:16 0° 193° (SSW) 2,469 10.6 -7.3°
Reaches altitude 10° 17:40:31 10° 206° (SSW) 1,605 9.9 -7.6°
Maximum altitude 17:43:28 26° 265° (W) 947 9.1 -8.0°
Drops below altitude 10° 17:46:28 10° 325° (NW) 1,635 9.5 -8.5°
Sets 17:48:47 0° 338° (NNW) 2,527 10.3 -8.8°
